Palmdale, CA

4:17 AM PDT on May 29, 2017 (GMT -0700)
Palmdale Af Plant 42

Weather History for KPMD - May, 2012

Change the Weather History Date:

Wednesday, May 30, 2012

  Actual Average Record
Temperature  
Mean Temperature 77 °F 71 °F  
Max Temperature 94 °F 87 °F 103 °F (1984)
Min Temperature 59 °F 56 °F 39 °F (1998)
Degree Days  
Heating Degree Days 0 1  
Month to date heating degree days 21 67  
Since 1 July heating degree days 2819 2917  
Cooling Degree Days 12 7  
Month to date cooling degree days 176 139  
Year to date cooling degree days 231 162  
Growing Degree Days 26 (Base 50)    
Moisture  
Dew Point 35 °F    
Average Humidity 26    
Maximum Humidity 46    
Minimum Humidity 6    
Precipitation  
Precipitation 0.00 in 0.01 in 0.00 in (2017)
Month to date precipitation T 0.25  
Year to date precipitation 1.79 5.23  
Since 1 July precipitation 3.72  
Snow  
Snow 0.00 in - - ()
Month to date snowfall 0.0  
Since 1 July snowfall 0.0  
Snow Depth 0.00 in    
Sea Level Pressure  
Sea Level Pressure 29.93 in    
Wind  
Wind Speed 8 mph (WSW)    
Max Wind Speed 22 mph    
Max Gust Speed 30 mph    
Visibility 10 miles    
Events      
T = Trace of Precipitation, MM = Missing Value Source: NWS Daily Summary

Daily Weather History Graph

Daily Weather History Graph

Search for Another Location

Airport or City:

Trip Planner

Search our weather history database for the weather conditions in past years. The results will help you decide how hot, cold, wet, or windy it might be!

Date:

Astronomy

May. 30, 2012 Rise Set
Actual Time 5:40 AM PDT 7:59 PM PDT
Civil Twilight 5:12 AM PDT 8:28 PM PDT
Nautical Twilight 4:36 AM PDT 9:03 PM PDT
Astronomical Twilight 3:57 AM PDT 9:42 PM PDT
Moon 2:54 PM PDT (5/30) 1:56 AM PDT (5/30)
Length of Visible Light 15h 16m
Length of Day
14h 18m
Waxing Gibbous, 71% of the Moon is Illuminated
May 30
Waxing Gibbous
Jun 4
Full
Jun 11
Last Quarter
Jun 19
New
Jun 26
First Quarter

Hourly Weather History & Observations

Time (PDT) Temp. Dew Point Humidity Pressure Visibility Wind Dir Wind Speed Gust Speed Precip Events Conditions
12:53 AM 66.0 °F 37.0 °F 34% 29.95 in 10.0 mi SSW 11.5 mph - N/A   Clear
1:53 AM 66.0 °F 37.0 °F 34% 29.94 in 10.0 mi SSW 10.4 mph - N/A   Clear
2:53 AM 64.0 °F 36.0 °F 35% 29.94 in 10.0 mi SW 9.2 mph - N/A   Clear
3:53 AM 64.0 °F 37.0 °F 37% 29.94 in 10.0 mi SW 5.8 mph - N/A   Clear
4:53 AM 62.1 °F 37.9 °F 41% 29.94 in 10.0 mi SW 6.9 mph - N/A   Clear
5:53 AM 60.1 °F 39.0 °F 46% 29.96 in 10.0 mi South 5.8 mph - N/A   Clear
6:53 AM 64.0 °F 39.0 °F 40% 29.97 in 10.0 mi South 4.6 mph - N/A   Clear
7:53 AM 71.1 °F 37.9 °F 30% 29.97 in 10.0 mi WSW 3.5 mph - N/A   Clear
8:53 AM 75.0 °F 37.0 °F 25% 29.97 in 10.0 mi WNW 4.6 mph - N/A   Clear
9:53 AM 78.1 °F 35.1 °F 21% 29.96 in 10.0 mi WNW 3.5 mph - N/A   Clear
10:53 AM 82.0 °F 34.0 °F 18% 29.96 in 10.0 mi NW 8.1 mph - N/A   Clear
11:53 AM 84.9 °F 33.1 °F 16% 29.95 in 10.0 mi Calm Calm - N/A   Clear
12:53 PM 87.1 °F 30.9 °F 13% 29.93 in 10.0 mi West 10.4 mph - N/A   Clear
1:53 PM 91.0 °F 26.1 °F 10% 29.91 in 10.0 mi Variable 4.6 mph - N/A   Clear
2:53 PM 91.9 °F 23.0 °F 8% 29.90 in 10.0 mi East 11.5 mph 18.4 mph N/A   Clear
3:53 PM 93.0 °F 17.1 °F 6% 29.88 in 10.0 mi ENE 13.8 mph 19.6 mph N/A   Clear
4:53 PM 93.0 °F 18.0 °F 6% 29.87 in 10.0 mi North 17.3 mph 21.9 mph N/A   Clear
5:53 PM 87.1 °F 44.1 °F 22% 29.88 in 10.0 mi West 19.6 mph - N/A   Clear
6:53 PM 84.0 °F 43.0 °F 24% 29.89 in 10.0 mi WSW 11.5 mph 23.0 mph N/A   Clear
7:53 PM 80.1 °F 42.1 °F 26% 29.91 in 10.0 mi West 11.5 mph - N/A   Clear
8:53 PM 75.9 °F 42.1 °F 30% 29.93 in 10.0 mi WSW 9.2 mph - N/A   Clear
9:53 PM 73.9 °F 42.1 °F 32% 29.94 in 10.0 mi SW 6.9 mph - N/A   Clear
10:53 PM 71.1 °F 41.0 °F 34% 29.95 in 10.0 mi WSW 4.6 mph - N/A   Clear
11:53 PM 69.1 °F 42.1 °F 38% 29.94 in 10.0 mi SW 4.6 mph - N/A   Clear